User: anonymous   Login
Location: Unspecified
(0.0000°N, 0.0000°E)
Time: 21:50:34
(UTC+00:00)
Language:

CUBESAT XI-V - Orbit

View from above orbital plane
View from above orbital plane
View from above satellite
View from above satellite

Ground track
Ground track

The orbit data is extracted from the following two-line orbital elements,

1 28895U 05043F   18017.93254782 +.00000130 +00000-0 +33706-4 0  9998
2 28895 097.8863 175.6691 0016900 180.0789 180.0414 14.63498947651666
Epoch (UTC): 17 January 2018 22:22:52
Eccentricity: 0.0016900
inclination: 97.8863°
perigee height: 670 km
apogee height: 694 km
right ascension of ascending node: 175.6691°
argument of perigee: 180.0789°
revolutions per day: 14.63498947
mean anomaly at epoch: 180.0414°
orbit number at epoch: 65166

The dashed part of the orbit path shows where the satellite is in the earth's shadow,  

DLR